Weather in Calabasas

United States     34˚08′09″N   118˚41′04″W
temp.,
°C
wind,
m/s
gust,
m/s
humid.,
%
clouds,
%
prec.,
mm/h
press.,
hPa
HPBL,
m
2 december, wed
wed201:00+11˚nne33240 0.0 101824
04:00+11˚nne33210 0.0 101724
07:00+10˚nne33221 0.0 101824
10:00+21˚ne451233 0.0 1020469
13:00+24˚ne44110 0.0 10181012
16:00+21˚ne711140 0.0 1018410
19:00+13˚nne611161 0.0 1020214
22:00+11˚nne8181620 0.0 1023346
3 december, thu
thu301:00+10˚nne11201851 0.0 1023381
04:00+10˚nne12211825 0.0 1024477
07:00+7˚nne612227 0.0 1025293
10:00+15˚ne913143 0.0 1026697
13:00+18˚nne1114110 0.0 1023847
16:00+17˚ne913100 0.0 1024574
19:00+8˚nne35160 0.0 102465
22:00+7˚nne33172 0.0 102631
4 december, fri
fri401:00+6˚nne33170 0.0 102528
04:00+6˚ne34170 0.0 102427
07:00+6˚ne34170 0.0 102427
10:00+17˚ne34100 0.0 1025304
13:00+22˚ene1270 0.0 1022835
16:00+17˚w34140 0.0 102175
19:00+8˚nnw122778 0.0 102236
22:00+8˚ne232342 0.0 102323
5 december, sat
sat501:00+6˚ne22430 0.0 102322
04:00+6˚ne22320 0.0 102322
07:00+6˚ne22304 0.0 102422
10:00+18˚e2282 0.0 1024273
13:00+21˚ssw2180 0.0 1023893
16:00+16˚w22190 0.0 102257
19:00+9˚nw122337 0.0 102326
22:00+8˚nne122769 0.0 102426
6 december, sun
sun601:00+8˚nne332671 0.0 102326
04:00+8˚nne343035 0.0 102228
07:00+7˚nne33300 0.0 102224
10:00+18˚nne22160 0.0 1022264
13:00+22˚wsw22140 0.0 1019888
16:00+17˚wnw232346 0.0 101745
19:00+9˚nne123272 0.0 101825
22:00+9˚ne334036 0.0 101728